Regional Weather Roundup
Issued by NWS Portland, ME

Current Version | Previous Version | Text Only | Print | Product List | Glossary On
Versions: 1 2 3 4 5 6 7 8 9 10 11 12 13 14 15 16 17 18 19 20 21 22 23 24 25 26 27 28 29 30 31 32 33 34 35 36 37 38 39 40 41 42 43 44 45 46 47 48 49 50
000
ASUS41 KGYX 201610
RWRGYX
WEATHER ROUNDUP FOR MAINE AND NEW HAMPSHIRE
NATIONAL WEATHER SERVICE GRAY ME
1200 PM EDT SUN APR 20 2014

MEZ002-005-006-010-012-015-018-020-021-024-026-027-029-201700-
MAINE

CITY           SKY/WX    TMP DP  RH WIND       PRES   REMARKS
PORTLAND       SUNNY     50  20  30 E9        30.48F
SANFORD        SUNNY     57   1  10 SE7       30.48F
BAR HARBOR     SUNNY     48  21  34 NE7       30.44F
WISCASSET      SUNNY     51  14  22 E7        30.48F
ROCKLAND       SUNNY     46  21  36 E13       30.47F
FRYEBURG       SUNNY     53   9  17 NE8       30.46F
LEWISTONAUBURN SUNNY     48  16  27 W5        30.47F
AUGUSTA        SUNNY     48  15  26 N6        30.46F
WATERVILLE     SUNNY     48  16  27 NW5       30.41F
BANGOR         MOSUNNY   48  17  29 CALM      30.45F
GREENVILLE       N/A     42  14  32 VRB6      30.38F
MILLINOCKET    SUNNY     46  19  34 S5        30.44F
HOULTON        SUNNY     45  11  25 N9        30.42F
PRESQUE ISLE   PTSUNNY   41  16  36 N9        30.45S
FRENCHVILLE    CLOUDY    36  15  42 VRB5      30.41F
CARIBOU        PTSUNNY   40  15  36 N6        30.42F
$$

NHZ002-005-008-009-011-012-014-201700-
NEW HAMPSHIRE

CITY           SKY/WX    TMP DP  RH WIND       PRES   REMARKS
PORTSMOUTH     MOSUNNY   49  17  28 E10       30.50F
ROCHESTER      SUNNY     52  15  23 SE6       30.47F
NASHUA         SUNNY     51  15  24 SE6       30.50F
MANCHESTER     MOSUNNY   51  14  22 NW3       30.47F
CONCORD        SUNNY     52  14  22 S3        30.47F
LACONIA        SUNNY     46  12  25 NE8       30.47F
PLYMOUTH         N/A     53  11  19 E5        30.44F
BERLIN         SUNNY     51   9  18 VRB5      30.41F
WHITEFIELD     SUNNY     52  12  20 VRB3      30.42F
JAFFREY        SUNNY     50  11  20 SW8       30.46F
LEBANON        SUNNY     52  13  21 VRB5      30.45F
MT WASHINGTON  MOSUNNY   32  12  43 W8          N/A
$$

VTZ005-007-008-201700-
VERMONT

CITY           SKY/WX    TMP DP  RH WIND       PRES   REMARKS
ST JOHNSBURY     N/A     50  13  22 MISG      30.42F
MONTPELIER     SUNNY     48  10  21 N7        30.47F
BURLINGTON     MOSUNNY   50  22  33 SW6       30.45F
$$

MAZ007-012-024-CTZ003-RIZ002-NYZ038-NYZ072-201700-
SOUTHERN NEW ENGLAND AND NY

CITY           SKY/WX    TMP DP  RH WIND       PRES   REMARKS
BOSTON         MOSUNNY   46  29  51 SE12      30.53F
WORCESTER      SUNNY     48  14  25 S6        30.47F
NANTUCKET      MOSUNNY   48  30  49 NE14G22   30.49S
PROVIDENCE     MOSUNNY   52  20  28 E7G20     30.50F
HARTFORD       MOSUNNY   53  17  24 CALM      30.48F
ALBANY         PTSUNNY   54  18  24 CALM      30.46F
NEW YORK CITY  PTSUNNY   52  27  38 NE12      30.49F
$$

ANZ081-ANZ082-ANZ150-NHZ014-MEZ023>029-201700-
COASTAL MARINE OBSERVATIONS

STATION/POSITION TIME  TEMP    WIND        PRES    WAVE
                       AIR SEA DIR/SP/G            HT/PER
                 (UTC) (F)     (DEG/KT/KT) (MB)    (FT/S)
MOUNT DESERT ROC 1600   41                 1031.2F
MATINICUS ROCK   1500   40      50/ 11/ 13 1032.4F
PORTLAND WX BUOY 1600   42 43  140/  8/ 10 1032.9F   2/ 8
WELLS            1600   43 39  160/  7/ 10 1032.3F
ISLE OF SHOALS   1500   40      30/  7/  9 1033.1F
JEFFREYS LEDGE   1600      41                N/A     3/10
CASHES LEDGE BUO 1600   40 41   40/ 12/ 12 1032.4F   3/ 4
$$

.............KEY..............
   WCI - WIND CHILL
   TC  - TEMPERATURE IN CELSIUS
   VSB - VISIBILITY IN MILES
   HX  - HEAT INDEX
   FAIR- INDICATES FEW OR NO CLOUDS BELOW 12,000 FT, WITH NO
         SIGNIFICANT WEATHER AND/OR OBSTRUCTIONS TO VISIBILITY.





USA.gov is the U.S. government's official web portal to all federal, state and local government web resources and services.